Simultaneous Nadir Overpasses (SNOs) Predictions

Prediction of SNOs between GOES-16 and NOAA-19 Satellite Orbit:

Table of predicted SNOs for the next 14.0 days since TLE Epoch: 7/30/2022
Index Date Time (GOES-16) GOES-16 Lat,Lon NOAA-19 Lat,Lon Distance(km) Time Diff (sec)
1 08/01/2022 01:01:26 0.02, -75.20 -0.41, -77.15 221.69 80
2 08/02/2022 00:52:15 0.02, -75.21 0.26, -74.26 109.34 80
3 08/03/2022 00:40:22 0.01, -75.22 0.88, -71.35 440.45 80
4 08/04/2022 13:09:58 -0.01, -75.24 0.88, -79.09 439.19 80
5 08/05/2022 12:58:07 -0.01, -75.25 0.21, -76.19 108.05 80
6 08/06/2022 12:46:16 -0.02, -75.26 -0.46, -73.30 222.99 80
7 08/09/2022 01:09:36 0.00, -75.27 -0.68, -78.20 334.86 80
8 08/10/2022 00:55:05 0.00, -75.28 0.01, -75.31 4.00 80
9 08/11/2022 00:43:12 0.00, -75.29 0.64, -72.41 328.07 80
